Location: C�mpuri de-Sus
(45.9500°N, 22.5500°E)
Time: 13:33:51
(UTC+00:00)

NOAA 6 - Pass Details

Date: 24 October 2021
Orbit: 771 x 787 km, 98.7° (Epoch: 06 December)

Event Time Altitude Azimuth Distance (km) Brightness Sun altitude
Rises 15:47:54 0° 165° (SSE) 3,264 7.2 -4.1°
Reaches altitude 10° 15:50:12 10° 165° (SSE) 2,341 6.5 -4.5°
Maximum altitude 15:55:23 87° 254° (WSW) 796 4.2 -5.4°
Drops below altitude 10° 16:00:37 10° 345° (NNW) 2,360 6.6 -6.3°
Sets 16:02:57 0° 346° (NNW) 3,292 7.3 -6.7°
